Retour au catalogue

ARIANE 40+ R/B

ActifSSO
NORAD 23561·ROCKET BODY·🇫🇷 France

Lancé Apr 21, 1995 depuis Guiana Space Centre

Loading…

Prochains Passages (prochaines 24 heures)

TLE

FraisSource: Space-Track

Époque: Sep 14, 2026, 22:18 UTC

1 23561U 95021B   26257.92976146  .00000172  00000-0  68738-4 0  9996
2 23561  98.4333 326.6743 0005594 299.2131 239.4467 14.39872692646473

Suivez ARIANE 40+ R/B en temps réel avec AllMySat

Download on the App Store